Weather History for Arbor Vitae, WI

Change the Weather History Date:

Thursday, December 8, 2011

  Actual Average Record
Temperature  
Mean Temperature 16 °F -  
Max Temperature 21 °F 25 °F 45 °F (1930)
Min Temperature 11 °F 8 °F -22 °F (1917)
Degree Days  
Heating Degree Days 48    
Moisture  
Dew Point 7 °F    
Average Humidity 63    
Maximum Humidity 83    
Minimum Humidity 50    
Precipitation  
Precipitation 0.00 in - - ()
Sea Level Pressure  
Sea Level Pressure 29.95 in    
Wind  
Wind Speed 9 mph (West)    
Max Wind Speed 18 mph    
Max Gust Speed 25 mph    
Visibility 10 miles    
Events Snow    
Averages and records for this station are not official NWS values.
T = Trace of Precipitation, MM = Missing Value Source: NWS Daily Summary

Daily Weather History Graph

Daily Weather History Graph

Search for Another Location

Airport:

Trip Planner

Search our weather history database for the weather conditions in past years. The results will help you decide how hot, cold, wet, or windy it might be!

Date:

Astronomy

Dec. 08, 2011 Rise Set
Actual Time 7:27 AM CST 4:13 PM CST
Civil Twilight 6:53 AM CST 4:48 PM CST
Nautical Twilight 6:15 AM CST 5:25 PM CST
Astronomical Twilight 5:39 AM CST 6:02 PM CST
Moon 2:54 PM CST (12/8) 5:38 AM CST (12/8)
Length of Visible Light 9h 54m
Length of Day
8h 46m
Waxing Gibbous, 97% of the Moon is Illuminated
Dec 8
Waxing Gibbous
Dec 10
Full
Dec 17
Last Quarter
Dec 24
New
Jan 1
First Quarter

Hourly Weather History & Observations

Time (CST) Temp. Windchill Dew Point Humidity Pressure Visibility Wind Dir Wind Speed Gust Speed Precip Events Conditions
12:35 AM 19.4 °F 7.9 °F 14.5 °F 81% 29.87 in 10.0 mi West 10.4 mph 17.3 mph N/A   Scattered Clouds
12:55 AM 19.9 °F 9.3 °F 14.7 °F 80% 29.88 in 10.0 mi West 9.2 mph - N/A   Mostly Cloudy
1:15 AM 19.8 °F 9.9 °F 14.7 °F 81% 29.88 in 10.0 mi West 8.1 mph - N/A   Mostly Cloudy
1:35 AM 19.2 °F 7.0 °F 14.4 °F 81% 29.88 in 10.0 mi West 11.5 mph 16.1 mph N/A   Scattered Clouds
1:55 AM 19.2 °F 8.4 °F 14.7 °F 83% 29.88 in 10.0 mi West 9.2 mph - N/A Snow Light Snow
2:15 AM 19.2 °F 12.5 °F 14.9 °F 83% 29.89 in 10.0 mi West 4.6 mph - N/A   Scattered Clouds
2:35 AM 19.2 °F 10.2 °F 14.9 °F 83% 29.90 in 10.0 mi West 6.9 mph - N/A Snow Light Snow
3:15 AM 19.2 °F 7.0 °F 13.8 °F 80% 29.90 in 10.0 mi West 11.5 mph - N/A Snow Light Snow
3:35 AM 18.7 °F 9.5 °F 12.7 °F 78% 29.91 in 10.0 mi West 6.9 mph - N/A   Scattered Clouds
3:55 AM 18.0 °F 8.7 °F 12.0 °F 78% 29.91 in 10.0 mi West 6.9 mph - N/A   Scattered Clouds
4:15 AM 17.6 °F 8.2 °F 11.5 °F 77% 29.92 in 10.0 mi West 6.9 mph - N/A   Scattered Clouds
4:35 AM 17.1 °F 7.6 °F 10.6 °F 76% 29.92 in 10.0 mi West 6.9 mph - N/A   Scattered Clouds
4:55 AM 16.7 °F 8.3 °F 10.4 °F 76% 29.92 in 10.0 mi West 5.8 mph - N/A   Clear
5:15 AM 16.7 °F 6.2 °F 9.9 °F 74% 29.92 in 10.0 mi West 8.1 mph - N/A   Clear
5:35 AM 16.7 °F 7.2 °F 8.2 °F 69% 29.93 in 10.0 mi West 6.9 mph - N/A   Clear
5:55 AM 16.7 °F 6.2 °F 7.3 °F 67% 29.93 in 10.0 mi WSW 8.1 mph - N/A   Clear
6:15 AM 14.5 °F 8.8 °F 5.2 °F 66% 29.94 in 10.0 mi West 3.5 mph - N/A   Clear
6:35 AM 13.8 °F 8.0 °F 4.6 °F 67% 29.95 in 10.0 mi West 3.5 mph - N/A   Clear
6:55 AM 12.9 °F 6.9 °F 3.7 °F 67% 29.95 in 10.0 mi WSW 3.5 mph - N/A   Clear
7:15 AM 12.0 °F 4.1 °F 2.8 °F 67% 29.95 in 10.0 mi WSW 4.6 mph - N/A   Clear
7:35 AM 12.4 °F 6.3 °F 2.5 °F 65% 29.95 in 10.0 mi WSW 3.5 mph - N/A   Clear
7:55 AM 13.5 °F 2.2 °F 3.2 °F 64% 29.96 in 10.0 mi WSW 8.1 mph - N/A   Mostly Cloudy
8:15 AM 15.6 °F 7.0 °F 5.2 °F 63% 29.96 in 10.0 mi West 5.8 mph - N/A   Overcast
8:35 AM 16.7 °F 7.2 °F 5.5 °F 62% 29.96 in 10.0 mi West 6.9 mph - N/A   Overcast
8:55 AM 16.7 °F 5.3 °F 5.0 °F 60% 29.96 in 10.0 mi West 9.2 mph - N/A   Scattered Clouds
9:15 AM 16.7 °F 5.3 °F 5.2 °F 61% 29.96 in 10.0 mi West 9.2 mph - N/A   Clear
9:35 AM 17.1 °F 6.6 °F 6.1 °F 62% 29.97 in 10.0 mi West 8.1 mph - N/A   Clear
9:55 AM 18.7 °F 5.7 °F 7.3 °F 61% 29.96 in 7.0 mi West 12.7 mph 18.4 mph N/A   Clear
10:15 AM 19.2 °F 5.8 °F 6.6 °F 58% 29.97 in 10.0 mi WSW 13.8 mph 19.6 mph N/A   Clear
10:35 AM 19.2 °F 6.4 °F 6.1 °F 57% 29.97 in 7.0 mi West 12.7 mph 19.6 mph N/A   Clear
10:55 AM 19.2 °F 6.4 °F 6.3 °F 57% 29.96 in 10.0 mi West 12.7 mph 20.7 mph N/A   Clear
11:15 AM 19.2 °F 3.8 °F 5.7 °F 56% 29.96 in 10.0 mi West 18.4 mph 23.0 mph N/A   Mostly Cloudy
11:35 AM 19.2 °F 4.7 °F 4.8 °F 54% 29.96 in 10.0 mi West 16.1 mph 24.2 mph N/A   Scattered Clouds
11:55 AM 19.6 °F 5.7 °F 4.5 °F 52% 29.96 in 10.0 mi West 15.0 mph 19.6 mph N/A   Mostly Cloudy
12:15 PM 21.4 °F 7.5 °F 5.4 °F 50% 29.95 in 10.0 mi West 16.1 mph 23.0 mph N/A   Mostly Cloudy
12:35 PM 20.7 °F 8.8 °F 4.6 °F 50% 29.94 in 10.0 mi West 11.5 mph 23.0 mph N/A   Scattered Clouds
12:55 PM 20.1 °F 5.4 °F 3.9 °F 50% 29.94 in 10.0 mi West 17.3 mph 25.3 mph N/A   Clear
1:15 PM 19.8 °F 7.7 °F 4.1 °F 51% 29.95 in 10.0 mi West 11.5 mph 19.6 mph N/A   Mostly Cloudy
1:35 PM 19.8 °F 7.1 °F 4.6 °F 52% 29.95 in 10.0 mi WNW 12.7 mph 19.6 mph N/A   Overcast
1:55 PM 19.4 °F 6.6 °F 4.5 °F 52% 29.95 in 10.0 mi West 12.7 mph 20.7 mph N/A   Mostly Cloudy
2:15 PM 19.2 °F 8.4 °F 5.2 °F 54% 29.95 in 10.0 mi West 9.2 mph 17.3 mph N/A   Clear
2:35 PM 19.2 °F 9.3 °F 5.2 °F 54% 29.95 in 10.0 mi WNW 8.1 mph - N/A   Scattered Clouds
2:55 PM 19.2 °F 8.4 °F 6.1 °F 57% 29.95 in 10.0 mi West 9.2 mph - N/A   Scattered Clouds
3:15 PM 19.6 °F 8.9 °F 6.1 °F 56% 29.95 in 10.0 mi West 9.2 mph - N/A   Scattered Clouds
3:35 PM 19.2 °F 8.4 °F 4.3 °F 52% 29.96 in 10.0 mi West 9.2 mph 17.3 mph N/A   Scattered Clouds
3:55 PM 19.2 °F 8.4 °F 3.4 °F 50% 29.96 in 10.0 mi West 9.2 mph 16.1 mph N/A   Scattered Clouds
4:15 PM 19.2 °F 7.7 °F 3.7 °F 51% 29.96 in 10.0 mi West 10.4 mph 16.1 mph N/A   Mostly Cloudy
4:35 PM 19.2 °F 8.4 °F 4.3 °F 52% 29.97 in 10.0 mi West 9.2 mph - N/A   Mostly Cloudy
4:55 PM 19.2 °F 7.7 °F 4.8 °F 54% 29.98 in 10.0 mi West 10.4 mph - N/A   Mostly Cloudy
5:15 PM 18.1 °F 5.6 °F 4.3 °F 55% 29.98 in 10.0 mi West 11.5 mph - N/A   Scattered Clouds
5:35 PM 17.1 °F 8.7 °F 3.6 °F 56% 29.98 in 10.0 mi West 5.8 mph - N/A   Scattered Clouds
5:55 PM 16.7 °F 6.2 °F 3.2 °F 55% 29.99 in 10.0 mi West 8.1 mph - N/A   Clear
6:15 PM 16.7 °F 6.2 °F 3.2 °F 55% 29.99 in 10.0 mi West 8.1 mph - N/A   Clear
6:35 PM 16.7 °F 6.2 °F 3.9 °F 57% 29.99 in 10.0 mi WSW 8.1 mph - N/A   Clear
6:55 PM 16.7 °F 7.2 °F 4.1 °F 58% 30.00 in 10.0 mi WSW 6.9 mph - N/A   Scattered Clouds
7:15 PM 15.1 °F 9.4 °F 3.0 °F 59% 30.00 in 10.0 mi SW 3.5 mph - N/A   Scattered Clouds
7:35 PM 14.0 °F 5.1 °F 3.0 °F 62% 30.00 in 10.0 mi WSW 5.8 mph - N/A   Mostly Cloudy
7:55 PM 14.0 °F 8.2 °F 3.2 °F 62% 30.00 in 10.0 mi West 3.5 mph - N/A   Mostly Cloudy
8:15 PM 14.0 °F 8.2 °F 3.9 °F 64% 30.00 in 10.0 mi WSW 3.5 mph - N/A   Scattered Clouds
8:55 PM 12.6 °F - 3.4 °F 67% 30.01 in 10.0 mi Calm Calm - N/A   Clear
9:15 PM 11.7 °F 5.5 °F 3.2 °F 69% 30.01 in 10.0 mi West 3.5 mph - N/A   Clear
9:35 PM 12.0 °F 1.5 °F 3.7 °F 69% 30.01 in 10.0 mi West 6.9 mph - N/A   Scattered Clouds
9:55 PM 13.3 °F 2.0 °F 4.5 °F 68% 30.01 in 10.0 mi West 8.1 mph - N/A   Scattered Clouds
10:15 PM 13.6 °F 4.6 °F 4.3 °F 66% 30.01 in 10.0 mi West 5.8 mph - N/A   Clear
10:35 PM 11.8 °F 3.9 °F 3.0 °F 68% 30.01 in 10.0 mi West 4.6 mph - N/A   Scattered Clouds
10:55 PM 11.3 °F 3.3 °F 2.8 °F 69% 30.01 in 10.0 mi West 4.6 mph - N/A   Clear
11:15 PM 11.3 °F 3.3 °F 3.0 °F 69% 30.02 in 10.0 mi West 4.6 mph - N/A   Clear
11:35 PM 11.3 °F 3.3 °F 3.2 °F 70% 30.01 in 10.0 mi WSW 4.6 mph - N/A   Clear
11:55 PM 10.0 °F 1.8 °F 2.3 °F 71% 30.01 in 10.0 mi WSW 4.6 mph - N/A   Clear